When you browse on this site, cookies collect data to enhance your experience and personalize the content and advertising you see.
Visit our Privacy Policy to learn more. By continuing to use the site, you agree to this use of cookies and data.
  • In Latvia
  • List of Countries
  • For 7 days
  • Water Temperature
  • Satellite Maps
  • Weather Map
  • Weather Widgets
  • user-avatar
    Login

    Hourly Weather Tirana

    Today, 27 March, Wednesday

    Time Temperature Precipitation Wind Pressure Humidity
    00:00 +11°C° 0.1 mm 4 mps 755 mmHg 58%
    01:00 +10°C° 0.1 mm 5 mps 755 mmHg 57%
    02:00 +10°C° 0.2 mm 4 mps 755 mmHg 56%
    03:00 +10°C° 0.2 mm 4 mps 755 mmHg 56%
    04:00 +10°C° 0.2 mm 4 mps 755 mmHg 56%
    05:00 +10°C° 0.2 mm 4 mps 756 mmHg 55%
    06:00 +10°C° 0.2 mm 4 mps 756 mmHg 53%
    07:00 +11°C° 0.2 mm 4 mps 756 mmHg 52%
    08:00 +13°C° 0.1 mm 4 mps 756 mmHg 46%
    09:00 +15°C° 0.1 mm 4 mps 756 mmHg 41%
    10:00 +18°C° 0.1 mm 4 mps 756 mmHg 35%
    11:00 +19°C° 0 mm 4 mps 756 mmHg 34%
    12:00 +19°C° 0 mm 3 mps 756 mmHg 33%
    13:00 +20°C° 0 mm 3 mps 756 mmHg 32%
    14:00 +20°C° 0 mm 3 mps 756 mmHg 34%
    15:00 +20°C° 0 mm 3 mps 755 mmHg 35%
    16:00 +20°C° 0 mm 4 mps 755 mmHg 36%
    17:00 +18°C° 0.1 mm 3 mps 756 mmHg 43%
    18:00 +16°C° 0.1 mm 3 mps 756 mmHg 51%
    19:00 +14°C° 0.1 mm 3 mps 756 mmHg 58%
    20:00 +14°C° 0.1 mm 2 mps 756 mmHg 62%
    21:00 +14°C° 0.1 mm 2 mps 757 mmHg 65%
    22:00 +13°C° 0.1 mm 2 mps 757 mmHg 69%
    23:00 +12°C° 0 mm 3 mps 757 mmHg 63%

    Tomorrow, 28 March, Thursday

    Time Temperature Precipitation Wind Pressure Humidity
    00:00 +11°C° 0 mm 4 mps 757 mmHg 57%
    01:00 +9°C° 0 mm 5 mps 757 mmHg 51%
    02:00 +9°C° 0 mm 5 mps 757 mmHg 48%
    03:00 +9°C° 0 mm 5 mps 757 mmHg 45%
    04:00 +9°C° 0 mm 6 mps 757 mmHg 42%
    05:00 +9°C° 0 mm 5 mps 757 mmHg 44%
    06:00 +10°C° 0 mm 5 mps 757 mmHg 46%
    07:00 +10°C° 0 mm 5 mps 757 mmHg 47%
    08:00 +12°C° 0 mm 5 mps 757 mmHg 43%
    09:00 +14°C° 0 mm 5 mps 757 mmHg 39%
    10:00 +16°C° 0 mm 5 mps 757 mmHg 35%
    11:00 +17°C° 0 mm 5 mps 757 mmHg 34%
    12:00 +19°C° 0 mm 5 mps 757 mmHg 32%
    13:00 +20°C° 0 mm 5 mps 757 mmHg 31%
    14:00 +19°C° 0 mm 5 mps 757 mmHg 32%
    15:00 +19°C° 0 mm 5 mps 756 mmHg 33%
    16:00 +17°C° 0 mm 5 mps 756 mmHg 34%
    17:00 +16°C° 0 mm 5 mps 756 mmHg 38%
    18:00 +14°C° 0 mm 5 mps 757 mmHg 42%
    19:00 +12°C° 0 mm 4 mps 757 mmHg 45%
    20:00 +10°C° 0 mm 5 mps 757 mmHg 47%
    21:00 +10°C° 0 mm 5 mps 758 mmHg 49%
    22:00 +9°C° 0 mm 5 mps 758 mmHg 50%
    23:00 +9°C° 0 mm 5 mps 759 mmHg 51%

    Day after tomorrow, 29 March, Friday

    Time Temperature Precipitation Wind Pressure Humidity
    00:00 +8°C° 0 mm 6 mps 759 mmHg 53%
    01:00 +8°C° 0 mm 6 mps 759 mmHg 54%
    02:00 +7°C° 0 mm 6 mps 759 mmHg 55%
    03:00 +7°C° 0 mm 6 mps 759 mmHg 55%
    04:00 +5°C° 0 mm 6 mps 759 mmHg 56%
    05:00 +7°C° 0 mm 6 mps 760 mmHg 54%
    06:00 +8°C° 0 mm 6 mps 760 mmHg 53%
    07:00 +8°C° 0 mm 6 mps 760 mmHg 51%
    08:00 +10°C° 0 mm 6 mps 760 mmHg 43%
    09:00 +13°C° 0 mm 6 mps 760 mmHg 36%
    10:00 +15°C° 0 mm 5 mps 760 mmHg 29%
    11:00 +16°C° 0 mm 5 mps 760 mmHg 27%
    12:00 +16°C° 0 mm 5 mps 759 mmHg 26%
    13:00 +17°C° 0 mm 5 mps 759 mmHg 24%
    14:00 +17°C° 0 mm 6 mps 759 mmHg 25%
    15:00 +17°C° 0 mm 6 mps 758 mmHg 26%
    16:00 +17°C° 0 mm 7 mps 758 mmHg 27%
    17:00 +15°C° 0 mm 7 mps 758 mmHg 31%
    18:00 +13°C° 0 mm 8 mps 759 mmHg 35%
    19:00 +11°C° 0 mm 8 mps 759 mmHg 39%
    20:00 +10°C° 0 mm 8 mps 759 mmHg 41%
    21:00 +9°C° 0 mm 7 mps 759 mmHg 42%
    22:00 +8°C° 0 mm 7 mps 760 mmHg 44%
    23:00 +8°C° 0 mm 6 mps 760 mmHg 45%

    30 March, Saturday

    Time Temperature Precipitation Wind Pressure Humidity
    00:00 +7°C° 0 mm 6 mps 760 mmHg 47%
    01:00 +7°C° 0 mm 6 mps 760 mmHg 49%
    02:00 +6°C° 0 mm 5 mps 760 mmHg 49%
    03:00 +6°C° 0 mm 5 mps 760 mmHg 50%
    04:00 +6°C° 0 mm 5 mps 760 mmHg 50%
    05:00 +6°C° 0 mm 5 mps 760 mmHg 49%
    06:00 +7°C° 0 mm 5 mps 760 mmHg 49%
    07:00 +8°C° 0 mm 5 mps 760 mmHg 48%
    08:00 +10°C° 0 mm 5 mps 759 mmHg 42%
    09:00 +13°C° 0 mm 4 mps 759 mmHg 35%
    10:00 +15°C° 0 mm 4 mps 759 mmHg 29%
    11:00 +17°C° 0 mm 4 mps 758 mmHg 28%
    12:00 +17°C° 0 mm 5 mps 758 mmHg 27%
    13:00 +19°C° 0 mm 5 mps 757 mmHg 25%
    14:00 +19°C° 0 mm 6 mps 757 mmHg 29%
    15:00 +17°C° 0 mm 7 mps 757 mmHg 33%
    16:00 +17°C° 0 mm 9 mps 756 mmHg 37%
    17:00 +15°C° 0 mm 9 mps 757 mmHg 44%
    18:00 +13°C° 0 mm 8 mps 757 mmHg 51%
    19:00 +11°C° 0 mm 8 mps 757 mmHg 58%
    20:00 +10°C° 0 mm 7 mps 757 mmHg 57%
    21:00 +10°C° 0 mm 6 mps 757 mmHg 55%
    22:00 +9°C° 0 mm 5 mps 758 mmHg 53%
    23:00 +9°C° 0 mm 5 mps 757 mmHg 51%

    31 March, Sunday

    Time Temperature Precipitation Wind Pressure Humidity
    00:00 +8°C° 0 mm 4 mps 757 mmHg 50%
    01:00 +8°C° 0 mm 4 mps 757 mmHg 49%
    02:00 +9°C° 0 mm 3 mps 757 mmHg 50%
    03:00 +8°C° 0 mm 3 mps 756 mmHg 51%
    04:00 +8°C° 0 mm 3 mps 756 mmHg 52%
    05:00 +9°C° 0 mm 3 mps 756 mmHg 51%
    06:00 +10°C° 0 mm 2 mps 756 mmHg 50%
    07:00 +12°C° 0 mm 2 mps 756 mmHg 49%
    08:00 +14°C° 0 mm 2 mps 756 mmHg 43%
    09:00 +16°C° 0 mm 2 mps 756 mmHg 37%
    10:00 +20°C° 0 mm 1 mps 755 mmHg 31%
    11:00 +19°C° 0 mm 3 mps 755 mmHg 32%
    12:00 +20°C° 0 mm 4 mps 754 mmHg 34%
    13:00 +20°C° 0 mm 5 mps 754 mmHg 35%
    14:00 +19°C° 0 mm 5 mps 753 mmHg 39%
    15:00 +17°C° 0 mm 6 mps 753 mmHg 44%
    16:00 +16°C° 0 mm 6 mps 753 mmHg 49%
    17:00 +14°C° 0 mm 5 mps 753 mmHg 58%
    18:00 +13°C° 0 mm 4 mps 753 mmHg 67%
    19:00 +11°C° 0 mm 3 mps 753 mmHg 76%
    20:00 +12°C° 0 mm 2 mps 753 mmHg 77%
    21:00 +11°C° 0 mm 1 mps 754 mmHg 77%
    22:00 +11°C° 0 mm 1 mps 754 mmHg 78%
    23:00 +11°C° 0 mm 1 mps 754 mmHg 78%

    1 April, Monday

    Time Temperature Precipitation Wind Pressure Humidity
    00:00 +11°C° 0 mm 1 mps 754 mmHg 77%
    01:00 +10°C° 0 mm 1 mps 754 mmHg 77%
    02:00 +10°C° 0 mm 1 mps 754 mmHg 75%
    03:00 +10°C° 0 mm 1 mps 754 mmHg 74%
    04:00 +10°C° 0 mm 1 mps 753 mmHg 73%
    05:00 +11°C° 0 mm 1 mps 754 mmHg 68%
    06:00 +12°C° 0 mm 1 mps 754 mmHg 64%
    07:00 +13°C° 0 mm 2 mps 754 mmHg 60%
    08:00 +15°C° 0 mm 1 mps 754 mmHg 54%
    09:00 +18°C° 0 mm 1 mps 753 mmHg 49%
    10:00 +18°C° 0 mm 0 mps 753 mmHg 43%
    11:00 +19°C° 0 mm 2 mps 753 mmHg 43%
    12:00 +20°C° 0 mm 3 mps 753 mmHg 43%
    13:00 +20°C° 0 mm 5 mps 752 mmHg 43%
    14:00 +20°C° 0 mm 5 mps 752 mmHg 47%
    15:00 +19°C° 0 mm 5 mps 752 mmHg 50%
    16:00 +18°C° 0 mm 4 mps 752 mmHg 54%
    17:00 +16°C° 0 mm 3 mps 752 mmHg 63%
    18:00 +14°C° 0 mm 3 mps 752 mmHg 72%
    19:00 +13°C° 0 mm 2 mps 753 mmHg 81%
    20:00 +13°C° 0 mm 1 mps 753 mmHg 80%
    21:00 +12°C° 0 mm 1 mps 753 mmHg 79%
    22:00 +12°C° 0 mm 1 mps 753 mmHg 78%
    23:00 +12°C° 0 mm 1 mps 753 mmHg 78%
    Show more